Location: The Saddle
(36.8333°N, 80.3417°W)
Time: 09:25:40
(UTC-05:00)

S-56A Canister/Altair - Pass Details

Date: 09 December 2023
Orbit: 640 x 2488 km, 38.9° (Epoch: 25 February)

Event Time Altitude Azimuth Distance (km) Brightness Sun altitude
Rises 08:03:28 0° 203° (SSW) 4,460 11.6 6.2°
Reaches altitude 10° 08:08:01 10° 185° (S) 3,099 11.1 6.9°
Maximum altitude 08:12:25 17° 148° (SSE) 2,272 11.4 7.6°
Drops below altitude 10° 08:16:02 10° 109° (ESE) 2,468 11.9 8.2°
Sets 08:19:04 0° 88° (E) 3,203 11.6 8.7°
